| time (UTC) | temp F | wind direction | speed knots | gust knots | rain 1hr in | rain 24hr in | rain mn in | humidity % | barometer mb |
| 20260506021412 | 48 | 315 | 0.9 | 2.6 | 0.00 | 0.00 | 0.00 | 99 | 1008.1 |
| 20260506014412 | 48 | 0 | 0.9 | 3.5 | 0.00 | 0.00 | 0.00 | 99 | 1008.3 |
| 20260506011412 | 48 | 0 | 0.9 | 1.7 | 0.00 | 0.00 | 0.00 | 99 | 1008.4 |
| 20260506004412 | 49 | 315 | 0.9 | 3.5 | 0.00 | 0.00 | 0.00 | 99 | 1008.6 |
| 20260506001413 | 49 | 0 | 0.9 | 5.2 | 0.00 | 0.00 | 0.00 | 99 | 1008.8 |
| 20260505234413 | 49 | 45 | 0.9 | 3.5 | 0.00 | 0.00 | 0.00 | 99 | 1009.2 |
| 20260505231412 | 49 | 315 | 0.9 | 3.5 | 0.00 | 0.00 | 0.00 | 99 | 1009.1 |
| 20260505224413 | 49 | 90 | 0.9 | 3.5 | 0.00 | 0.00 | 0.00 | 99 | 1009.3 |
| 20260505221412 | 48 | 315 | 0.9 | 3.5 | 0.00 | 0.00 | 0.00 | 99 | 1009.5 |
| 20260505214412 | 49 | 45 | 0.9 | 3.5 | 0.00 | 0.00 | 0.00 | 99 | 1009.8 |
| 20260505211412 | 49 | 315 | 0.9 | 3.5 | 0.00 | 0.00 | 0.00 | 99 | 1009.8 |
| 20260505204413 | 49 | 270 | 0.0 | 2.6 | 0.00 | 0.00 | 0.00 | 99 | 1010.0 |
| 20260505201413 | 49 | 315 | 0.9 | 5.2 | 0.00 | 0.00 | 0.00 | 99 | 1009.9 |
| 20260505194412 | 49 | 45 | 0.9 | 3.5 | 0.00 | 0.00 | 0.00 | 99 | 1009.9 |
| 20260505191413 | 49 | 0 | 1.7 | 7.0 | 0.00 | 0.00 | 0.00 | 99 | 1009.8 |
| 20260505164413 | 53 | 315 | 2.6 | 8.7 | 0.00 | 0.00 | 0.00 | 93 | 1009.8 |
| 20260505161412 | 54 | 45 | 1.7 | 7.0 | 0.00 | 0.00 | 0.00 | 84 | 1009.8 |
| 20260505151414 | 55 | 45 | 1.7 | 5.2 | 0.00 | 0.00 | 0.00 | 79 | 1010.0 |
| 20260505124418 | 55 | 225 | 0.9 | 5.2 | 0.00 | 0.00 | 0.00 | 91 | 1011.0 |
| 20260505121413 | 53 | 45 | 0.9 | 8.7 | 0.00 | 0.00 | 0.00 | 93 | 1011.0 |
| 20260505114414 | 53 | 270 | 0.9 | 5.2 | 0.00 | 0.00 | 0.00 | 95 | 1011.1 |
| 20260505111413 | 53 | 315 | 0.9 | 3.5 | 0.00 | 0.00 | 0.00 | 95 | 1011.2 |
| 20260505101413 | 52 | 45 | 1.7 | 6.1 | 0.00 | 0.00 | 0.00 | 99 | 1011.4 |
| 20260505094413 | 52 | 337 | 0.9 | 4.3 | 0.00 | 0.00 | 0.00 | 95 | 1011.5 |
| 20260505091413 | 51 | 0 | 0.9 | 2.6 | 0.00 | 0.00 | 0.00 | 97 | 1011.8 |
| 20260505084413 | 51 | 45 | 0.9 | 2.6 | 0.00 | 0.00 | 0.00 | 98 | 1012.1 |
| 20260505081414 | 50 | 0 | 0.9 | 2.6 | 0.00 | 0.00 | 0.00 | 99 | 1012.1 |
| 20260505074413 | 48 | 45 | 1.7 | 6.1 | 0.00 | 0.00 | 0.00 | 99 | 1012.2 |
| 20260505071413 | 47 | 0 | 0.9 | 5.2 | 0.00 | 0.00 | 0.00 | 99 | 1012.1 |
| 20260505064414 | 46 | 315 | 1.7 | 6.1 | 0.00 | 0.00 | 0.00 | 99 | 1012.2 |
| 20260505054413 | 46 | 315 | 0.9 | 2.6 | 0.00 | 0.00 | 0.00 | 99 | 1012.2 |
| 20260505041413 | 46 | 90 | 1.7 | 10.4 | 0.00 | 0.00 | 0.00 | 99 | 1012.0 |
| 20260505034413 | 46 | 315 | 0.9 | 2.6 | 0.00 | 0.00 | 0.00 | 99 | 1011.9 |
| 20260505031415 | 46 | 180 | 0.9 | 7.8 | 0.00 | 0.00 | 0.00 | 99 | 1012.2 |
| 20260505031413 | 46 | 180 | 0.9 | 7.8 | 0.00 | 0.00 | 0.00 | 99 | 1012.2 |
| 20260505024414 | 46 | 45 | 0.9 | 7.8 | 0.00 | 0.00 | 0.00 | 99 | 1012.3 |